Change the Weather History Date:

Saturday, May 10, 2014

  Actual Average Record
Temperature  
Mean Temperature 68 °F 62 °F  
Max Temperature 87 °F 73 °F 93 °F (2011)
Min Temperature 48 °F 51 °F 36 °F (1989)
Degree Days  
Heating Degree Days 0 5  
Month to date heating degree days 38 58  
Since 1 July heating degree days 6185 5396  
Cooling Degree Days 3 2  
Month to date cooling degree days 34 13  
Year to date cooling degree days 42 34  
Growing Degree Days 16 (Base 50)    
Moisture  
Dew Point 53 °F    
Average Humidity 60    
Maximum Humidity 86    
Minimum Humidity 34    
Precipitation  
Precipitation T in 0.18 in 1.94 in (2010)
Month to date precipitation 0.07 1.84  
Year to date precipitation 5.28 9.37  
Sea Level Pressure  
Sea Level Pressure 29.77 in    
Wind  
Wind Speed 10 mph (South)    
Max Wind Speed 33 mph    
Max Gust Speed 43 mph    
Visibility 10 miles    
Events Rain , Thunderstorm    
T = Trace of Precipitation, MM = Missing Value Source: NWS Daily Summary

Daily Weather History Graph

Daily Weather History Graph

Search for Another Location

Airport or City:

Trip Planner

Search our weather history database for the weather conditions in past years. The results will help you decide how hot, cold, wet, or windy it might be!

Date:

Astronomy

May. 10, 2014 Rise Set
Actual Time 6:09 AM CDT 8:22 PM CDT
Civil Twilight 5:39 AM CDT 8:52 PM CDT
Nautical Twilight 5:02 AM CDT 9:30 PM CDT
Astronomical Twilight 4:22 AM CDT 10:10 PM CDT
Moon 4:19 PM CDT (5/10) 3:42 AM CDT (5/10)
Length of Visible Light 15h 13m
Length of Day
14h 13m
Waxing Gibbous, 82% of the Moon is Illuminated
May 10
Waxing Gibbous
May 14
Full
May 21
Last Quarter
May 28
New
Jun 5
First Quarter

Hourly Weather History & Observations

Time (CDT) Temp. Heat Index Dew Point Humidity Pressure Visibility Wind Dir Wind Speed Gust Speed Precip Events Conditions
12:53 AM 55.9 °F - 46.9 °F 72% 29.87 in 10.0 mi South 3.5 mph - N/A   Clear
1:53 AM 54.0 °F - 46.0 °F 75% 29.85 in 10.0 mi Calm Calm - N/A   Clear
2:53 AM 54.0 °F - 46.0 °F 75% 29.84 in 10.0 mi South 5.8 mph - N/A   Clear
3:53 AM 48.0 °F - 44.1 °F 86% 29.83 in 10.0 mi Calm Calm - N/A   Clear
4:53 AM 50.0 °F - 44.1 °F 80% 29.84 in 10.0 mi Calm Calm - N/A   Clear
6:53 AM 55.9 °F - 46.0 °F 69% 29.86 in 10.0 mi South 3.5 mph - N/A   Clear
7:53 AM 61.0 °F - 48.0 °F 62% 29.86 in 10.0 mi SSE 6.9 mph - N/A   Clear
8:53 AM 66.9 °F - 48.9 °F 52% 29.86 in 10.0 mi South 12.7 mph - N/A   Clear
9:53 AM 72.0 °F - 50.0 °F 46% 29.84 in 10.0 mi South 15.0 mph - N/A   Clear
10:53 AM 73.9 °F - 50.0 °F 43% 29.82 in 10.0 mi South 21.9 mph 26.5 mph N/A   Clear
11:53 AM 79.0 °F - 55.0 °F 44% 29.79 in 10.0 mi South 18.4 mph 26.5 mph N/A   Clear
12:53 PM 81.0 °F 80.7 °F 55.0 °F 41% 29.75 in 10.0 mi SSE 17.3 mph 27.6 mph N/A   Clear
1:53 PM 84.0 °F 82.6 °F 54.0 °F 35% 29.71 in 10.0 mi SSE 19.6 mph 25.3 mph N/A   Clear
2:53 PM 84.0 °F 82.5 °F 53.1 °F 34% 29.70 in 10.0 mi South 20.7 mph 29.9 mph N/A   Mostly Cloudy
3:53 PM 84.9 °F 83.7 °F 55.9 °F 37% 29.68 in 10.0 mi South 18.4 mph - N/A   Partly Cloudy
4:53 PM 82.0 °F 82.1 °F 59.0 °F 45% 29.66 in 10.0 mi SSW 13.8 mph - N/A   Partly Cloudy
5:53 PM 78.1 °F - 60.1 °F 54% 29.68 in 10.0 mi WSW 15.0 mph - 0.00 in Rain Light Rain
6:53 PM 78.1 °F - 59.0 °F 52% 29.67 in 10.0 mi SSW 6.9 mph - 0.00 in   Clear
7:40 PM 78.1 °F - 60.1 °F 54% 29.71 in 10.0 mi SSW 6.9 mph - N/A Thunderstorm Clear
7:45 PM 77.0 °F - 59.0 °F 54% 29.74 in 10.0 mi SW 32.2 mph 39.1 mph N/A Thunderstorm Unknown
7:53 PM 70.0 °F - 57.9 °F 65% 29.74 in 10.0 mi SSW 28.8 mph 42.6 mph N/A Thunderstorm Unknown
8:15 PM 70.0 °F - 57.0 °F 63% 29.74 in 10.0 mi South 15.0 mph 24.2 mph N/A   Partly Cloudy
8:53 PM 64.9 °F - 55.9 °F 73% 29.73 in 10.0 mi SE 8.1 mph - N/A   Clear
9:53 PM 64.0 °F - 55.9 °F 75% 29.73 in 10.0 mi Calm Calm - N/A   Clear
10:53 PM 62.1 °F - 57.0 °F 84% 29.76 in 10.0 mi Calm Calm - N/A   Clear
11:53 PM 64.0 °F - 55.0 °F 73% 29.77 in 10.0 mi SSE 6.9 mph - N/A   Clear